SCP
0 0 0 0 0 0 0 0 0 0 0 0 0 0 0 0 0 0 0 0 0 0 0 0 0 0 0 0 0 0 0 0 0 0 0 0 0 0 0 0 0 0 0 -0
0 0 0 0 0 0 0 0 0 0 0 0 0 0 0 0 0 0 0 0 0 0 0 0 0 0 0 0 0 0 0 0 0 0 0 0 0 0 0 0 0 0 0 0
0 0 0 0 0 0 0 0 0 0 0 0 0 0 0 0 0 0 0 0 0 0 0 0 0 0 0 0 0 0 0 0 0 0 0 0 0 0 0 0 0 0 0 0
0 0 0 0 0 0 0 0 0 0 0 0 0 0 0 0 0 0 0 0 0 0 0 0 0 0 0 0 0 0 0 0 0 0 0 0 0 0 0 0 0 0 0 0
0 0 0 0 0 0 0 0 0 0 0 0 0 0 0 0 0 0 0 0 0 0 0 0 0 0 0 0 0 0 0 0 0 0 0 0 0 0 0 0 0 0 0 0
0 0 0 0 0 0 0 0 0 0 0 0 0 0 0 0 0 0 0 0 0 0 0 0 0 0 0 0 0 0 0 0 0 0 0 -0 0 0 0 -0 0 0 0 0
0 0 0 0 0 0 0 0 0 0 0 0 0 0 0 0 0 0 0 0 0 0 0 0 0 0 0 0 0 0 0 0 0 0 -0 0 0 0 0 -0 0 0 0 0
0 0 0 0 0 0 0 0 0 0 0 0 0 0 0 0 0 0 0 0 0 0 0 0 0 0 0 0 0 0 0 0 0 0 0 0 0 0 -0 -0 0 0 -0 0
0 0 0 0 0 0 0 0 0 0 0 0 0 0 0 0 0 0 0 0 0 0 0 0 0 0 0 0 0 0 0 0 0 0 0 0 0 -0 -0 0 0 -0 0 -0
0 0 0 0 0 0 0 0 0 0 0 0 0 0 0 0 0 0 0 0 0 0 0 0 0 0 0 0 0 0 0 0 0 0 0 0 0 -0 -0 0 0 -0 -0 -0
0 0 0 0 0 0 0 0 0 0 0 0 0 0 0 0 0 0 0 0 0 0 0 0 0 0 0 0 0 0 0 0 0 0 0 0 -0 -0 -0 0 0 0 -0 -0
0 0 0 0 0 0 0 0 0 0 0 0 0 0 0 0 0 0 0 0 0 0 0 0 0 0 0 0 0 0 0 0 0 0 0 0 0 -0 -0 -0 0 -0 -0 -0
0 0 0 0 0 0 0 0 0 0 0 0 0 0 0 0 0 0 0 0 0 0 0 0 0 0 0 0 0 0 0 0 0 0 0 0 0 -0 0 -0 -0 -0 -0 -0
0 0 0 0 0 0 0 0 0 0 0 0 0 0 0 0 0 0 0 0 0 0 0 0 0 0 0 0 0 0 0 0 0 0 -0 0 0 0 -0 -0 -0 -0 -0 -0
0 0 0 0 0 0 0 0 0 0 0 0 0 0 0 0 0 0 0 0 0 0 0 0 0 0 0 0 0 0 0 0 0 0 0 -0 -0 -0 -0 -0 -0 -0 0 0
0 0 0 0 0 0 0 0 0 0 0 0 0 0 0 0 0 0 0 0 0 0 0 0 0 0 0 0 0 0 0 0 0 0 0 -0 -0 -0 -0 -0 -0 0 0 0
0 0 0 0 0 0 0 0 0 0 0 0 0 0 0 0 0 0 0 0 0 0 0 0 0 0 0 0 0 0 0 0 0 0 -0 -0 -0 0 -0 -0 0 0 0 0
0 0 0 0 0 0 0 0 0 0 0 0 0 0 0 0 0 0 0 0 0 0 0 0 0 0 0 -0 0 0 0 0 -0 -0 0 0 0 0 0 0 0 0 0 0
0 0 0 0 0 0 0 0 0 0 0 0 0 0 0 0 0 0 0 0 0 0 0 0 0 0 -0 -0 0 0 0 0 0 0 0 0 0 0 0 0 0 0 0 0
0 0 0 0 0 0 0 0 0 0 0 0 0 0 0 0 0 -0 0 0 0 0 0 0 0 0 0 0 0 0 0 0 0 0 0 0 0 0 0 0 0 0 0 0
0 0 0 0 0 0 0 0 0 0 0 0 0 0 0 0 0 0 0 0 0 0 0 0 0 -0 -0 0 0 0 0 -0 -0 0 0 0 0 0 0 0 0 0 0 0
0 0 0 0 0 0 0 0 0 0 0 0 0 0 0 0 0 0 0 0 0 -0 0 0 -0 -0 0 0 -0 0 0 0 -0 0 0 0 0 0 0 0 0 0 0 0
0 0 0 0 0 0 0 0 0 0 0 0 0 -0 0 0 -0 -0 0 0 0 0 0 -0 0 0 0 0 -0 -0 0 -0 0 0 0 0 0 0 0 0 0 0 0 0
0 0 0 0 0 0 0 0 0 0 0 0 0 -0 -0 -0 0 0 0 -0 0 0 0 -0 -0 0 -0 -0 -0 -0 0 -0 0 0 0 0 0 0 0 0 0 0 0 0
0 0 0 0 0 0 0 0 0 0 -0 0 -0 -0 -0 -0 -0 0 0 0 -0 0 0 -0 0 0 0 0 0 0 0 -0 0 0 0 0 0 0 0 0 0 0 0 0
0 0 0 0 0 0 0 0 0 -0 -0 -0 -0 -0 -0 0 0 0 0 0 0 -0 -0 -0 0 0 0 -0 0 0 -0 -0 0 0 0 0 0 0 0 0 0 0 0 0
0 0 0 0 0 0 0 0 0 0 0 -0 -0 -0 -0 0 0 0 0 0 0 0 -0 -0 0 0 0 -0 0 0 0 -0 0 0 0 0 0 0 0 0 0 0 0 0
Wind_Speed_500mb
66 71 55 57 67 65 64 32 8 25 30 13 6 2 6 17 11 29 10 6 8 10 8 9 11 15 15 16 9 9 13 7 12 31 36 21 19 21 9 8 7 8 6 22
59 61 60 53 56 64 65 39 13 24 25 6 8 14 12 8 11 11 9 9 10 7 8 10 9 11 13 19 11 6 7 6 10 16 9 5 4 7 16 17 11 25 15 13
56 51 54 54 47 54 48 18 8 15 15 8 6 8 10 9 18 12 28 14 13 11 9 10 16 29 8 6 29 47 17 14 22 23 25 13 18 24 27 16 9 20 34 46
55 50 45 45 43 42 32 17 6 4 9 9 21 5 7 8 10 8 24 9 14 15 11 9 12 9 27 19 24 3 11 10 15 24 36 40 41 39 35 32 33 23 38 34
54 48 42 37 36 36 20 13 10 11 26 25 9 6 6 3 8 7 11 8 22 18 13 16 38 31 25 13 5 1 5 5 6 13 36 35 40 26 20 29 24 21 28 38
53 48 41 32 28 27 17 15 10 9 12 7 4 7 5 17 27 21 16 20 11 14 22 44 66 64 50 25 8 3 3 4 6 11 14 20 12 12 10 25 25 20 14 10
51 46 40 31 25 28 28 22 13 5 9 4 8 13 34 27 19 20 43 40 7 24 64 73 28 7 6 12 5 13 7 4 5 14 15 6 8 9 11 27 37 15 21 26
52 47 40 33 27 28 29 28 10 9 8 17 28 9 9 34 32 29 25 19 40 43 34 10 12 8 7 8 12 12 8 3 6 8 5 13 15 9 16 21 22 4 24 30
54 52 43 33 26 22 33 32 23 16 11 10 17 12 24 8 6 12 13 48 29 19 5 7 6 5 8 9 13 9 8 8 7 6 8 9 3 27 35 20 10 32 40 39
58 54 41 31 27 23 31 31 20 18 14 37 17 12 8 15 7 6 16 19 18 17 7 6 3 7 6 6 8 8 8 3 6 7 8 11 13 25 37 5 11 57 60 63
54 46 36 27 22 22 31 34 21 31 18 58 66 49 34 23 12 6 16 20 5 6 6 2 3 5 6 7 8 7 5 5 5 5 7 11 22 10 11 16 43 52 62 69
45 41 31 19 19 21 27 36 39 34 28 56 74 84 90 85 74 54 16 11 5 8 4 5 4 7 6 7 7 4 6 8 5 9 10 7 14 21 28 47 55 48 64 68
41 38 30 20 18 24 29 33 34 37 28 57 38 48 38 26 15 33 24 18 18 15 16 8 2 9 4 5 7 6 6 5 6 5 6 11 43 21 42 58 60 68 67 63
35 37 27 23 25 27 27 32 35 34 20 12 24 18 60 73 59 52 53 43 28 19 15 8 5 6 16 6 8 7 4 3 7 12 20 29 9 39 59 68 62 62 61 46
29 32 30 29 26 24 21 28 38 41 26 11 37 78 8 8 24 32 54 62 64 27 8 7 6 8 7 5 4 6 12 8 5 8 12 18 34 52 57 54 57 60 52 34
32 30 25 23 20 17 17 10 9 12 24 13 8 33 35 28 12 19 32 49 54 26 12 9 10 11 10 5 5 5 20 18 23 12 28 39 47 42 38 49 54 41 30 25
31 21 22 23 17 17 17 11 18 16 9 9 14 17 15 33 13 5 14 33 27 21 11 11 11 14 17 6 8 2 13 17 22 25 24 17 20 29 39 36 31 26 31 32
29 23 28 32 32 29 24 12 14 16 30 10 6 10 19 15 11 6 13 17 27 16 13 9 9 5 7 7 7 9 10 15 13 17 15 23 31 26 27 29 19 31 40 47
27 28 32 20 5 7 11 21 24 22 19 7 8 4 8 21 9 9 10 16 6 10 5 7 7 3 8 8 4 3 4 5 8 13 15 17 13 22 23 21 23 40 46 53
22 22 10 6 7 25 34 9 5 6 10 11 9 7 8 15 8 7 8 6 5 5 9 7 6 7 6 5 3 7 6 6 1 7 13 14 14 16 16 19 25 38 47 48
18 11 6 22 37 31 9 6 7 7 7 11 13 20 13 15 7 7 8 3 2 2 7 5 4 6 5 13 4 5 5 7 2 3 3 7 7 10 10 17 34 38 52 58
16 23 35 19 7 9 5 5 5 8 6 8 8 12 17 18 16 8 6 4 2 8 3 2 6 6 11 16 5 2 7 7 7 12 6 5 8 16 10 16 36 48 55 61
17 7 7 7 6 5 5 5 5 4 6 10 18 10 9 12 14 11 4 4 8 1 1 6 7 8 17 12 6 6 8 9 11 14 11 10 14 23 19 30 33 47 53 58
5 5 9 7 7 9 8 6 2 20 16 39 34 14 10 11 7 3 7 8 4 3 3 8 3 20 17 12 8 10 13 14 16 14 16 17 24 25 30 36 41 46 57 59
7 8 9 12 21 21 26 33 28 32 44 46 24 16 8 5 4 6 6 3 5 8 8 5 8 22 14 12 10 10 15 17 14 18 19 23 24 25 31 37 38 46 57 61
10 16 11 20 17 24 27 21 19 38 41 34 9 5 5 7 6 6 7 5 6 7 5 3 21 18 11 11 13 14 17 20 17 25 25 26 26 33 39 39 42 50 55 65
11 16 29 34 34 32 43 44 28 33 33 4 7 4 7 9 8 8 7 6 6 21 2 12 10 6 13 13 14 18 21 23 24 24 22 26 28 36 44 47 45 46 50 58
Wind_Direction_500mb
337 342 353 353 351 355 358 353 340 340 350 38 24 344 298 309 304 332 288 310 243 245 265 250 249 229 221 236 191 206 203 227 265 275 271 283 268 252 236 243 228 231 282 266
333 335 344 350 353 356 354 340 312 346 5 57 331 321 307 267 316 306 352 293 252 273 286 331 225 248 262 292 180 217 177 225 303 311 352 30 228 190 216 234 250 240 251 258
330 329 334 347 355 354 355 348 354 338 28 61 96 325 276 304 310 294 342 287 339 343 292 220 280 292 304 198 259 266 198 252 238 256 267 273 279 270 273 244 244 262 241 269
331 329 327 333 345 354 7 1 350 16 308 328 325 234 268 303 344 298 337 323 339 306 286 269 254 251 294 282 287 302 184 257 215 246 261 267 268 275 280 271 261 257 272 266
330 330 326 326 337 347 4 1 350 323 294 295 305 283 276 307 315 271 283 302 301 292 251 225 296 302 302 259 290 260 40 280 297 272 261 262 269 264 277 274 288 302 284 269
324 326 324 318 323 333 341 329 312 275 275 310 344 251 274 313 312 285 267 315 287 285 266 292 290 283 271 242 217 118 151 269 279 268 333 308 254 166 310 312 295 306 291 309
324 322 319 310 299 303 314 308 310 241 272 258 215 287 303 292 285 264 290 296 267 293 312 311 308 313 123 98 161 172 181 244 257 291 324 349 173 108 357 324 294 353 338 315
326 324 315 306 282 292 297 302 273 230 268 242 292 263 252 294 297 284 277 290 317 312 320 345 342 340 340 141 169 207 185 202 289 291 276 277 177 33 339 324 293 77 324 325
325 323 315 300 284 279 286 296 261 225 276 247 233 303 295 286 281 319 290 320 335 315 44 32 359 289 285 314 335 198 228 218 233 308 277 277 39 330 317 300 267 350 334 317
324 321 313 298 284 272 276 284 256 231 257 278 268 210 261 283 257 245 288 331 327 357 26 24 0 290 300 285 301 300 301 331 230 267 272 280 358 326 325 12 316 322 313 305
330 327 316 301 292 272 272 279 274 238 245 273 275 272 256 239 209 163 305 332 277 11 52 41 319 274 281 303 261 268 281 307 270 265 270 283 9 339 3 314 304 302 303 307
336 333 323 300 308 291 270 272 284 259 263 265 285 281 279 272 263 261 258 248 220 220 130 226 234 248 257 267 278 194 259 209 255 217 246 307 333 315 311 318 310 312 312 310
337 339 332 320 308 296 278 276 278 290 289 302 287 290 293 253 267 238 213 234 221 224 223 180 244 250 224 247 243 255 249 153 242 322 242 287 310 313 329 325 322 326 321 319
337 331 332 320 309 299 292 282 288 287 291 276 290 286 298 293 274 244 228 249 254 246 210 209 210 230 197 244 250 227 243 192 250 254 285 323 352 325 323 323 328 329 334 337
341 332 326 315 309 299 278 281 283 283 262 278 294 308 331 321 304 247 238 240 228 222 195 217 228 237 228 242 259 236 182 220 224 262 300 306 293 312 322 321 326 333 339 358
331 328 324 327 316 303 308 293 275 293 224 287 299 299 299 315 328 277 241 225 214 210 205 225 239 248 205 267 248 221 211 229 277 270 298 300 303 318 330 327 331 338 358 55
331 330 340 340 336 298 277 277 310 298 267 270 296 291 293 333 323 234 211 206 205 214 231 227 242 245 205 260 263 253 237 285 294 293 312 307 331 325 333 330 333 1 71 96
327 322 322 322 313 291 300 319 257 290 258 263 274 278 313 354 306 252 207 186 202 228 220 234 219 196 222 258 221 273 291 313 314 318 315 302 320 335 343 345 359 70 81 99
321 329 315 311 329 318 316 309 295 277 234 257 242 267 279 331 309 288 219 194 176 220 231 239 177 154 232 232 184 286 296 324 309 336 333 344 348 351 355 14 58 83 88 100
323 332 321 300 313 328 322 264 246 211 217 236 258 255 277 313 307 298 264 206 221 210 235 166 221 249 262 175 77 32 1 4 295 339 346 9 21 18 17 40 84 101 105 115
348 327 282 285 304 297 241 239 222 187 247 230 242 235 247 278 225 252 245 238 191 312 264 177 277 273 224 170 82 52 2 323 3 310 286 352 22 56 76 89 108 120 116 114
316 306 296 301 291 238 256 247 213 209 252 215 236 259 240 267 229 243 262 242 69 249 155 135 276 254 161 156 105 84 25 66 83 117 88 52 74 100 84 108 111 124 122 127
325 301 284 266 265 259 232 233 232 252 294 267 281 296 233 263 233 252 275 232 235 35 32 235 232 164 159 160 137 112 116 98 108 114 101 91 104 115 125 125 129 131 131 130
296 283 276 241 232 238 219 215 167 267 273 297 305 294 239 254 226 203 255 234 107 320 261 243 224 176 171 169 154 134 132 119 123 109 120 116 123 120 128 134 140 140 136 136
236 235 246 240 242 267 269 284 297 297 325 316 314 302 269 250 243 235 283 237 249 211 233 246 162 166 172 159 154 144 135 126 140 122 124 126 136 127 125 139 143 144 140 142
226 230 249 258 288 278 280 285 298 311 329 316 288 298 282 266 221 205 282 172 229 276 278 316 149 160 177 153 152 150 142 137 134 143 138 134 143 136 133 138 138 139 145 142
228 239 237 250 273 270 277 289 297 320 320 289 291 272 261 290 305 6 360 360 333 312 341 148 157 160 161 151 149 148 149 150 145 145 144 142 146 150 142 142 147 150 146 149
Wind_Speed_850mb
66 71 55 57 67 65 64 32 8 25 30 13 6 2 6 17 11 29 10 6 8 10 8 9 11 15 15 16 9 9 13 7 12 31 36 21 19 21 9 8 7 8 6 22
59 61 60 53 56 64 65 39 13 24 25 6 8 14 12 8 11 11 9 9 10 7 8 10 9 11 13 19 11 6 7 6 10 16 9 5 4 7 16 17 11 25 15 13
56 51 54 54 47 54 48 18 8 15 15 8 6 8 10 9 18 12 28 14 13 11 9 10 16 29 8 6 29 47 17 14 22 23 25 13 18 24 27 16 9 20 34 46
55 50 45 45 43 42 32 17 6 4 9 9 21 5 7 8 10 8 24 9 14 15 11 9 12 9 27 19 24 3 11 10 15 24 36 40 41 39 35 32 33 23 38 34
54 48 42 37 36 36 20 13 10 11 26 25 9 6 6 3 8 7 11 8 22 18 13 16 38 31 25 13 5 1 5 5 6 13 36 35 40 26 20 29 24 21 28 38
53 48 41 32 28 27 17 15 10 9 12 7 4 7 5 17 27 21 16 20 11 14 22 44 66 64 50 25 8 3 3 4 6 11 14 20 12 12 10 25 25 20 14 10
51 46 40 31 25 28 28 22 13 5 9 4 8 13 34 27 19 20 43 40 7 24 64 73 28 7 6 12 5 13 7 4 5 14 15 6 8 9 11 27 37 15 21 26
52 47 40 33 27 28 29 28 10 9 8 17 28 9 9 34 32 29 25 19 40 43 34 10 12 8 7 8 12 12 8 3 6 8 5 13 15 9 16 21 22 4 24 30
54 52 43 33 26 22 33 32 23 16 11 10 17 12 24 8 6 12 13 48 29 19 5 7 6 5 8 9 13 9 8 8 7 6 8 9 3 27 35 20 10 32 40 39
58 54 41 31 27 23 31 31 20 18 14 37 17 12 8 15 7 6 16 19 18 17 7 6 3 7 6 6 8 8 8 3 6 7 8 11 13 25 37 5 11 57 60 63
54 46 36 27 22 22 31 34 21 31 18 58 66 49 34 23 12 6 16 20 5 6 6 2 3 5 6 7 8 7 5 5 5 5 7 11 22 10 11 16 43 52 62 69
45 41 31 19 19 21 27 36 39 34 28 56 74 84 90 85 74 54 16 11 5 8 4 5 4 7 6 7 7 4 6 8 5 9 10 7 14 21 28 47 55 48 64 68
41 38 30 20 18 24 29 33 34 37 28 57 38 48 38 26 15 33 24 18 18 15 16 8 2 9 4 5 7 6 6 5 6 5 6 11 43 21 42 58 60 68 67 63
35 37 27 23 25 27 27 32 35 34 20 12 24 18 60 73 59 52 53 43 28 19 15 8 5 6 16 6 8 7 4 3 7 12 20 29 9 39 59 68 62 62 61 46
29 32 30 29 26 24 21 28 38 41 26 11 37 78 8 8 24 32 54 62 64 27 8 7 6 8 7 5 4 6 12 8 5 8 12 18 34 52 57 54 57 60 52 34
32 30 25 23 20 17 17 10 9 12 24 13 8 33 35 28 12 19 32 49 54 26 12 9 10 11 10 5 5 5 20 18 23 12 28 39 47 42 38 49 54 41 30 25
31 21 22 23 17 17 17 11 18 16 9 9 14 17 15 33 13 5 14 33 27 21 11 11 11 14 17 6 8 2 13 17 22 25 24 17 20 29 39 36 31 26 31 32
29 23 28 32 32 29 24 12 14 16 30 10 6 10 19 15 11 6 13 17 27 16 13 9 9 5 7 7 7 9 10 15 13 17 15 23 31 26 27 29 19 31 40 47
27 28 32 20 5 7 11 21 24 22 19 7 8 4 8 21 9 9 10 16 6 10 5 7 7 3 8 8 4 3 4 5 8 13 15 17 13 22 23 21 23 40 46 53
22 22 10 6 7 25 34 9 5 6 10 11 9 7 8 15 8 7 8 6 5 5 9 7 6 7 6 5 3 7 6 6 1 7 13 14 14 16 16 19 25 38 47 48
18 11 6 22 37 31 9 6 7 7 7 11 13 20 13 15 7 7 8 3 2 2 7 5 4 6 5 13 4 5 5 7 2 3 3 7 7 10 10 17 34 38 52 58
16 23 35 19 7 9 5 5 5 8 6 8 8 12 17 18 16 8 6 4 2 8 3 2 6 6 11 16 5 2 7 7 7 12 6 5 8 16 10 16 36 48 55 61
17 7 7 7 6 5 5 5 5 4 6 10 18 10 9 12 14 11 4 4 8 1 1 6 7 8 17 12 6 6 8 9 11 14 11 10 14 23 19 30 33 47 53 58
5 5 9 7 7 9 8 6 2 20 16 39 34 14 10 11 7 3 7 8 4 3 3 8 3 20 17 12 8 10 13 14 16 14 16 17 24 25 30 36 41 46 57 59
7 8 9 12 21 21 26 33 28 32 44 46 24 16 8 5 4 6 6 3 5 8 8 5 8 22 14 12 10 10 15 17 14 18 19 23 24 25 31 37 38 46 57 61
10 16 11 20 17 24 27 21 19 38 41 34 9 5 5 7 6 6 7 5 6 7 5 3 21 18 11 11 13 14 17 20 17 25 25 26 26 33 39 39 42 50 55 65
11 16 29 34 34 32 43 44 28 33 33 4 7 4 7 9 8 8 7 6 6 21 2 12 10 6 13 13 14 18 21 23 24 24 22 26 28 36 44 47 45 46 50 58
Wind_Direction_850mb
337 342 353 353 351 355 358 353 340 340 350 38 24 344 298 309 304 332 288 310 243 245 265 250 249 229 221 236 191 206 203 227 265 275 271 283 268 252 236 243 228 231 282 266
333 335 344 350 353 356 354 340 312 346 5 57 331 321 307 267 316 306 352 293 252 273 286 331 225 248 262 292 180 217 177 225 303 311 352 30 228 190 216 234 250 240 251 258
330 329 334 347 355 354 355 348 354 338 28 61 96 325 276 304 310 294 342 287 339 343 292 220 280 292 304 198 259 266 198 252 238 256 267 273 279 270 273 244 244 262 241 269
331 329 327 333 345 354 7 1 350 16 308 328 325 234 268 303 344 298 337 323 339 306 286 269 254 251 294 282 287 302 184 257 215 246 261 267 268 275 280 271 261 257 272 266
330 330 326 326 337 347 4 1 350 323 294 295 305 283 276 307 315 271 283 302 301 292 251 225 296 302 302 259 290 260 40 280 297 272 261 262 269 264 277 274 288 302 284 269
324 326 324 318 323 333 341 329 312 275 275 310 344 251 274 313 312 285 267 315 287 285 266 292 290 283 271 242 217 118 151 269 279 268 333 308 254 166 310 312 295 306 291 309
324 322 319 310 299 303 314 308 310 241 272 258 215 287 303 292 285 264 290 296 267 293 312 311 308 313 123 98 161 172 181 244 257 291 324 349 173 108 357 324 294 353 338 315
326 324 315 306 282 292 297 302 273 230 268 242 292 263 252 294 297 284 277 290 317 312 320 345 342 340 340 141 169 207 185 202 289 291 276 277 177 33 339 324 293 77 324 325
325 323 315 300 284 279 286 296 261 225 276 247 233 303 295 286 281 319 290 320 335 315 44 32 359 289 285 314 335 198 228 218 233 308 277 277 39 330 317 300 267 350 334 317
324 321 313 298 284 272 276 284 256 231 257 278 268 210 261 283 257 245 288 331 327 357 26 24 0 290 300 285 301 300 301 331 230 267 272 280 358 326 325 12 316 322 313 305
330 327 316 301 292 272 272 279 274 238 245 273 275 272 256 239 209 163 305 332 277 11 52 41 319 274 281 303 261 268 281 307 270 265 270 283 9 339 3 314 304 302 303 307
336 333 323 300 308 291 270 272 284 259 263 265 285 281 279 272 263 261 258 248 220 220 130 226 234 248 257 267 278 194 259 209 255 217 246 307 333 315 311 318 310 312 312 310
337 339 332 320 308 296 278 276 278 290 289 302 287 290 293 253 267 238 213 234 221 224 223 180 244 250 224 247 243 255 249 153 242 322 242 287 310 313 329 325 322 326 321 319
337 331 332 320 309 299 292 282 288 287 291 276 290 286 298 293 274 244 228 249 254 246 210 209 210 230 197 244 250 227 243 192 250 254 285 323 352 325 323 323 328 329 334 337
341 332 326 315 309 299 278 281 283 283 262 278 294 308 331 321 304 247 238 240 228 222 195 217 228 237 228 242 259 236 182 220 224 262 300 306 293 312 322 321 326 333 339 358
331 328 324 327 316 303 308 293 275 293 224 287 299 299 299 315 328 277 241 225 214 210 205 225 239 248 205 267 248 221 211 229 277 270 298 300 303 318 330 327 331 338 358 55
331 330 340 340 336 298 277 277 310 298 267 270 296 291 293 333 323 234 211 206 205 214 231 227 242 245 205 260 263 253 237 285 294 293 312 307 331 325 333 330 333 1 71 96
327 322 322 322 313 291 300 319 257 290 258 263 274 278 313 354 306 252 207 186 202 228 220 234 219 196 222 258 221 273 291 313 314 318 315 302 320 335 343 345 359 70 81 99
321 329 315 311 329 318 316 309 295 277 234 257 242 267 279 331 309 288 219 194 176 220 231 239 177 154 232 232 184 286 296 324 309 336 333 344 348 351 355 14 58 83 88 100
323 332 321 300 313 328 322 264 246 211 217 236 258 255 277 313 307 298 264 206 221 210 235 166 221 249 262 175 77 32 1 4 295 339 346 9 21 18 17 40 84 101 105 115
348 327 282 285 304 297 241 239 222 187 247 230 242 235 247 278 225 252 245 238 191 312 264 177 277 273 224 170 82 52 2 323 3 310 286 352 22 56 76 89 108 120 116 114
316 306 296 301 291 238 256 247 213 209 252 215 236 259 240 267 229 243 262 242 69 249 155 135 276 254 161 156 105 84 25 66 83 117 88 52 74 100 84 108 111 124 122 127
325 301 284 266 265 259 232 233 232 252 294 267 281 296 233 263 233 252 275 232 235 35 32 235 232 164 159 160 137 112 116 98 108 114 101 91 104 115 125 125 129 131 131 130
296 283 276 241 232 238 219 215 167 267 273 297 305 294 239 254 226 203 255 234 107 320 261 243 224 176 171 169 154 134 132 119 123 109 120 116 123 120 128 134 140 140 136 136
236 235 246 240 242 267 269 284 297 297 325 316 314 302 269 250 243 235 283 237 249 211 233 246 162 166 172 159 154 144 135 126 140 122 124 126 136 127 125 139 143 144 140 142
226 230 249 258 288 278 280 285 298 311 329 316 288 298 282 266 221 205 282 172 229 276 278 316 149 160 177 153 152 150 142 137 134 143 138 134 143 136 133 138 138 139 145 142
228 239 237 250 273 270 277 289 297 320 320 289 291 272 261 290 305 6 360 360 333 312 341 148 157 160 161 151 149 148 149 150 145 145 144 142 146 150 142 142 147 150 146 149